Regional Weather Roundup
Issued by NWS

Home | Current Version | Previous Version | Graphics & Text | Print | Product List | Glossary On
Versions: 1 2 3 4 5 6 7 8 9 10 11 12 13 14 15 16 17 18 19 20 21 22 23 24 25 26 27 28 29 30 31 32 33 34 35 36 37 38 39 40 41 42 43 44 45 46 47 48 49 50
000
ASUS43 KLOT 232104
RWRIL

ILLINOIS REGIONAL WEATHER ROUNDUP
NATIONAL WEATHER SERVICE CHICAGO/ROMEOVILLE IL
400 PM CDT TUE MAY 23 2017

NOTE: "FAIR" INDICATES FEW OR NO CLOUDS BELOW 12,000 FEET WITH NO
SIGNIFICANT WEATHER AND/OR OBSTRUCTIONS TO VISIBILITY.

* THESE STATIONS ARE NOT UNDER NWS QUALITY CONTROL. THEY ALSO MAY NOT
  REPORT WEATHER SUCH AS PRECIPITATION OR FOG.

ILZ001-002-007-009-015-016-024-232200-
NORTHWEST ILLINOIS

CITY           SKY/WX    TMP DP  RH WIND       PRES   REMARKS
MOLINE         MOSUNNY   66  53  63 NW9       29.71F
STERLING*      LGT RAIN  57  54  89 NW8       29.73S
SAVANNA*       CLOUDY    58  54  86 NE3       29.72F
$$

ILZ003-004-008-010-011-017-018-232200-
NORTH CENTRAL ILLINOIS

CITY           SKY/WX    TMP DP  RH WIND       PRES   REMARKS
ROCKFORD       LGT RAIN  58  55  90 W3        29.74S
FREEPORT*      RAIN      55  54  95 SW6       29.75R
ROCHELLE*      RAIN      55  54  94 NW8       29.73S
DE KALB*       RAIN      58  56  93 S10       29.73F
PERU*          CLOUDY    56  55  93 SW8       29.73F
$$

ILZ005-006-012>014-019>023-232200-
NORTHEAST ILLINOIS

CITY           SKY/WX    TMP DP  RH WIND       PRES   REMARKS
CHICAGO-OHARE  HVY RAIN  60  56  86 SW3       29.73S FOG
CHICAGO-MIDWAY CLOUDY    62  56  80 E7        29.72F
AURORA         LGT RAIN  60  57  89 SE5       29.73F
LANSING*       CLOUDY    64  58  79 NE7       29.72F
JOLIET*        DRIZZLE   61  59  92 CALM      29.72F
WAUKEGAN       CLOUDY    58  55  90 SE8       29.72F
DUPAGE AIRPORT LGT RAIN  58  58 100 SE3       29.72F FOG
KANKAKEE*      CLOUDY    65  56  74 CALM      29.72S
WHEELING       LGT RAIN  59  57  93 S5        29.75S
MORRIS*        LGT RAIN  60  56  88 CALM      29.71F
ROMEOVILLE*    LGT RAIN  59  58  97 N3        29.73F
NORTHERLY ISL    N/A     56  53  90 NE2         N/A
$$

LMZ740>746-232200-
SOUTHERN LAKE MICHIGAN

STATION/POSITION SKY/WX   TEMP    WIND        PRES    VSBY  WAVE
                          AIR SEA DIR/SP/G                  HT/PER
                          (F)     (DEG/KT/KT) (MB)    (MI)  (FT/S)
SOUTHERN BUOY              48 45  120/ 10/ 10 1007.9          0
WILMETTE HARBOR            52 54                N/A           1
HARRISON CRIB              56     100/  8/  9   N/A
BURNHAM HARBOR             57      10/  2/  5   N/A
CALUMET HARBOR             58     360/  4/  5 1006.6F
BURNS HARBOR               57      80/  8/  9 1007.1F
MICHIGAN CITY              56      40/  9/ 10   N/A
MICHIGAN CITY 6N           55 54   50/  8/ 10   N/A           1
ST. JOSEPH                 59 56  100/  6/  8 1007.5F         0
$$

ILZ025>027-034>036-040-047-049-050-058-095>099-232200-
WEST-CENTRAL ILLINOIS

CITY           SKY/WX    TMP DP  RH WIND       PRES   REMARKS
QUINCY         MOSUNNY   62  53  72 W7        29.74F
GALESBURG*     PTSUNNY   63  54  72 NW7       29.72S
MACOMB*        CLOUDY    62  54  73 NW5       29.75F
JACKSONVILLE*  RAIN      56  54  92 N3        29.74F
PITTSFIELD*    CLOUDY    63  56  79 NW7       29.75F
$$

ILZ028>032-037-038-041>044-048-051>054-059>061-232200-
CENTRAL ILLINOIS

CITY           SKY/WX    TMP DP  RH WIND       PRES   REMARKS
PONTIAC        LGT RAIN  62  60  95 CALM      29.73S
BLOOMINGTON    CLOUDY    62  57  83 N5        29.72F
DECATUR        CLOUDY    65  56  72 SE8       29.71F
PEORIA         LGT RAIN  61  58  90 NW5       29.73F
LACON*         RAIN      59  57  94 W7        29.72F
LINCOLN*       CLOUDY    63  60  90 CALM      29.72S
SPRINGFIELD    CLOUDY    64  59  83 NW6       29.72F
TAYLORVILLE    CLOUDY    65  59  79 N5        29.71F
$$

ILZ033-039-045-046-055>057-062-063-232200-
EAST-CENTRAL ILLINOIS

CITY           SKY/WX    TMP DP  RH WIND       PRES   REMARKS
CHAMPAIGN      CLOUDY    69  49  48 S6        29.70F
RANTOUL*       CLOUDY    70  54  56 S7        29.71F
$$

ILZ079-100>102-232200-
SOUTHWEST ILLINOIS

CITY           SKY/WX    TMP DP  RH WIND       PRES   REMARKS
ALTON          CLOUDY    66  55  68 N6        29.72F
BELLEVILLE     CLOUDY    65  60  81 W3        29.72F
CAHOKIA*       LGT RAIN  64  59  83 NW5       29.72S
SPARTA*        CLOUDY    65  57  75 W8        29.72S
$$

ILZ064>066-069>071-074>076-080>082-084>086-088>090-092>094-232200-
SOUTH-CENTRAL ILLINOIS

CITY           SKY/WX    TMP DP  RH WIND       PRES   REMARKS
CARBONDALE     PTSUNNY   71  54  54 SW3       29.69F
CAIRO*         CLOUDY    73  54  49 W6        29.69F
EFFINGHAM*     CLOUDY    70  53  54 CALM      29.71F
MARION         PTSUNNY   72  54  53 SW5       29.71F
MT. VERNON       N/A     72  55  55 S6        29.69
CENTRALIA*     CLOUDY    73  57  57 W16       29.68F
SALEM*         CLOUDY    73  52  48 W12G17    29.69F
$$

ILZ067-068-072-073-078-083-087-091-232200-
SOUTHEAST ILLINOIS

CITY           SKY/WX    TMP DP  RH WIND       PRES   REMARKS
LAWRENCEVILLE  CLOUDY    73  48  41 VRB5      29.69F
FLORA*         PTSUNNY   73  52  47 SW6       29.69F
FAIRFIELD*     CLOUDY    72  51  48 CALM      29.68F
HARRISBURG*    CLOUDY    73  55  52 W8        29.69F
ROBINSON*      CLOUDY    72  47  40 SE5       29.70F
CARMI*         CLOUDY    73  51  46 NW5       29.68F
$$

ABBREVIATIONS USED IN REMARKS
   TC - TEMPERATURE IN CELSIUS
  WCI - WIND CHILL INDEX
   HX - HEAT INDEX
  VSB - VISIBILITY
$$





USA.gov is the U.S. government's official web portal to all federal, state and local government web resources and services.